Evans Head Observation History
Time Wind Speed Temp Pressure Rel. Hum Rain
26/05:30pm NE 8-13 kts 18.1°c 1017.5 hPa 81% 0.0mm
26/05:00pm NNE 8-13 kts 18.6°c 1017.1 hPa 77% 0.0mm
26/04:30pm NNE 9-15 kts 19.7°c 1016.5 hPa 73% 0.0mm
26/04:00pm NNE 10-17 kts 19.5°c 1016.5 hPa 74% 0.0mm
26/03:30pm NNE 8-12 kts 19.9°c 1016.5 hPa 71% 0.0mm
26/03:00pm NE 11-17 kts 19.7°c 1016.4 hPa 66% 0.0mm
26/02:30pm NE 10-14 kts 21.5°c 1016.5 hPa 55% 0.0mm
26/02:00pm ENE 11-14 kts 21.5°c 1016.7 hPa 52% 0.0mm
26/01:30pm ENE 9-14 kts 21.6°c 1017.0 hPa 53% 0.0mm
26/01:00pm ENE 8-11 kts 21.4°c 1017.2 hPa 54% 0.0mm
26/12:30pm E 7-10 kts 20.8°c 1017.6 hPa 57% 0.0mm
26/12:00pm E 7-9 kts 20.6°c 1018.0 hPa 58% 0.0mm
26/11:30am E 8-10 kts 20.1°c 1018.5 hPa 59% 0.0mm
26/11:00am ENE 7-9 kts 20.1°c 1018.9 hPa 60% 0.0mm
26/10:30am ESE 6-8 kts 20.7°c 1019.2 hPa 63% 0.0mm
26/10:00am SSE 5-7 kts 20.1°c 1019.5 hPa 62% 0.0mm
26/09:30am SSW 3-7 kts 18.9°c 1019.7 hPa 60% 0.0mm
26/09:00am W 4-6 kts 16.7°c 1019.9 hPa 63% 0.0mm
26/08:30am SSW 5-7 kts 15.2°c 1019.9 hPa 70% 0.0mm
26/08:00am WNW 2-5 kts 14.3°c 1019.6 hPa 77% 0.0mm
26/07:30am NW 5-6 kts 13.7°c 1019.0 hPa 71% 0.0mm
26/07:00am NW 4-5 kts 14.4°c 1018.8 hPa 71% 0.0mm
26/06:30am NW 6 kts 11.9°c 1018.4 hPa 77% 0.0mm
26/06:00am NNW 6-7 kts 12.3°c 1018.3 hPa 73% 0.0mm
26/05:30am NNW 5-6 kts 13.5°c 1017.7 hPa 69% 0.0mm
26/05:00am NNW 4-6 kts 13.6°c 1017.6 hPa 73% 0.0mm
26/04:30am NE 5-6 kts 14.9°c 1017.1 hPa 65% 0.0mm
26/04:00am CALM 0-2 kts 13.9°c 1017.1 hPa 68% 0.0mm
26/03:30am NW 6-9 kts 13.4°c 1016.8 hPa 70% 0.0mm
26/03:00am WNW 5-7 kts 13.4°c 1016.7 hPa 69% 0.0mm
26/02:30am WSW 4-5 kts 15.1°c 1016.8 hPa 65% 0.0mm
26/02:00am NW 4-5 kts 12.9°c 1016.8 hPa 78% 0.0mm
26/01:30am NNW 6-7 kts 12.7°c 1016.9 hPa 81% 0.0mm
26/01:00am NNW 5 kts 13.3°c 1017.0 hPa 79% 0.0mm
26/12:30am NNW 4-5 kts 13.5°c 1017.1 hPa 79% 0.0mm
26/12:00am NW 4-5 kts 13.5°c 1017.2 hPa 83% 0.0mm
Time Wind Speed Temp Pressure Rel. Hum Rain
25/11:30pm N 5-7 kts 13.8°c 1017.2 hPa 83% 0.0mm
25/11:00pm NNW 6-7 kts 14.2°c 1017.1 hPa 82% 0.0mm
25/10:30pm NNW 7-11 kts 15.1°c 1016.9 hPa 79% 0.0mm
25/10:00pm NNW 9-12 kts 15.5°c 1017.0 hPa 76% 0.0mm
25/09:30pm N 9-12 kts 15.7°c 1017.0 hPa 76% 0.0mm
25/09:00pm NNW 7-10 kts 15.7°c 1016.9 hPa 74% 0.0mm
25/08:30pm N 8-11 kts 16.2°c 1017.0 hPa 71% 0.0mm
25/08:00pm N 9-12 kts 16.6°c 1016.9 hPa 74% 0.0mm
25/07:30pm N 8-11 kts 17.0°c 1016.9 hPa 72% 0.0mm
25/07:00pm N 9-12 kts 17.4°c 1016.8 hPa 70% 0.0mm
25/06:30pm N 9-12 kts 17.7°c 1016.5 hPa 67% 0.0mm
25/06:00pm N 9-12 kts 18.4°c 1016.3 hPa 66% 0.0mm
25/05:30pm N 9-14 kts 19.0°c 1015.9 hPa 64% 0.0mm
25/05:00pm N 11-15 kts 20.2°c 1015.8 hPa 52% 0.0mm
25/04:30pm N 10-16 kts 21.2°c 1015.5 hPa 45% 0.0mm
25/04:00pm N 11-17 kts 22.2°c 1015.5 hPa 41% 0.0mm
25/03:30pm N 9-15 kts 23.5°c 1015.5 hPa 42% 0.0mm
25/03:00pm N 9-15 kts 24.5°c 1015.6 hPa 46% 0.0mm
25/02:30pm NNE 8-14 kts 25.1°c 1015.7 hPa 44% 0.0mm
25/02:00pm NNE 7-12 kts 25.8°c 1015.6 hPa 41% 0.0mm
25/01:30pm NE 9-15 kts 25.4°c 1015.6 hPa 35% 0.0mm
25/01:00pm NNW 4-8 kts 27.3°c 1016.1 hPa 29% 0.0mm
25/12:30pm NNW 6-9 kts 27.3°c 1016.6 hPa 32% 0.0mm
25/12:00pm NNW 7-11 kts 27.4°c 1017.2 hPa 32% 0.0mm
25/11:30am NNW 7-12 kts 27.0°c 1017.9 hPa 35% 0.0mm
25/11:00am WNW 7-11 kts 24.9°c 1018.4 hPa 41% 0.0mm
25/10:30am NW 8-12 kts 24.8°c 1018.7 hPa 42% 0.0mm
25/10:00am NW 7-13 kts 22.9°c 1019.1 hPa 47% 0.0mm
25/09:30am NW 7-14 kts 22.1°c 1019.3 hPa 52% 0.0mm
25/09:00am NW 8-13 kts 20.5°c 1019.5 hPa 54% 0.0mm
25/08:30am NW 9-16 kts 19.0°c 1019.5 hPa 56% 0.0mm
25/08:00am NW 8-13 kts 17.8°c 1019.4 hPa 59% 0.0mm
25/07:30am NW 8-13 kts 16.3°c 1019.2 hPa 64% 0.0mm
25/07:00am NW 7-11 kts 14.4°c 1018.8 hPa 71% 0.0mm
25/06:30am NW 7-10 kts 12.6°c 1018.6 hPa 75% 0.0mm
25/06:00am NW 7-11 kts 12.4°c 1018.5 hPa 74% 0.0mm
25/05:30am NW 6-12 kts 12.5°c 1018.4 hPa 73% 0.0mm
25/05:00am NW 7-12 kts 13.1°c 1018.2 hPa 72% 0.0mm
25/04:30am NW 8-13 kts 13.1°c 1018.1 hPa 71% 0.0mm
25/04:00am NW 8-15 kts 13.2°c 1018.0 hPa 71% 0.0mm
25/03:30am NW 9-15 kts 13.4°c 1018.2 hPa 71% 0.0mm
25/03:00am NW 10-16 kts 13.6°c 1018.2 hPa 70% 0.0mm
25/02:30am NW 8-16 kts 13.0°c 1018.4 hPa 72% 0.0mm
25/02:00am NW 6-9 kts 12.5°c 1018.7 hPa 72% 0.0mm
25/01:30am NW 6-9 kts 12.6°c 1018.9 hPa 71% 0.0mm
25/01:00am NW 6-11 kts 12.8°c 1019.1 hPa 70% 0.0mm
25/12:30am NW 6-10 kts 12.8°c 1019.3 hPa 71% 0.0mm
25/12:00am NW 4-8 kts 12.9°c 1019.7 hPa 75% 0.0mm
Time Wind Speed Temp Pressure Rel. Hum Rain
24/11:30pm ENE 3-5 kts 12.8°c 1019.7 hPa 78% 0.0mm
24/11:00pm N 5-7 kts 12.3°c 1019.6 hPa 79% 0.0mm
24/10:30pm N 4-7 kts 12.4°c 1019.8 hPa 80% 0.0mm
24/10:00pm NNW 4-7 kts 12.4°c 1019.8 hPa 79% 0.0mm
24/09:30pm NNW 6-9 kts 12.4°c 1019.7 hPa 78% 0.0mm
24/09:00pm N 7-10 kts 13.5°c 1019.9 hPa 75% 0.0mm
24/08:30pm N 8-12 kts 14.1°c 1019.9 hPa 74% 0.0mm
24/08:00pm N 9-14 kts 14.5°c 1019.9 hPa 72% 0.0mm
24/07:30pm NNW 10-16 kts 14.8°c 1020.0 hPa 70% 0.0mm
24/07:00pm NNW 11-17 kts 15.3°c 1019.9 hPa 68% 0.0mm
24/06:30pm N 12-18 kts 15.9°c 1019.6 hPa 68% 0.0mm
24/06:00pm N 11-18 kts 16.1°c 1019.5 hPa 68% 0.0mm
24/05:30pm N 12-21 kts 16.6°c 1019.3 hPa 66% 0.0mm
24/05:00pm N 12-20 kts 17.3°c 1019.3 hPa 64% 0.0mm
24/04:30pm N 14-21 kts 18.0°c 1019.3 hPa 61% 0.0mm
24/04:00pm NNE 13-20 kts 19.0°c 1019.3 hPa 59% 0.0mm
24/03:30pm NNE 11-19 kts 20.0°c 1019.5 hPa 57% 0.0mm
24/03:00pm NNE 12-19 kts 20.7°c 1019.6 hPa 55% 0.0mm
24/02:30pm NNE 9-14 kts 22.2°c 1019.8 hPa 53% 0.0mm
24/02:00pm NNE 10-17 kts 21.3°c 1020.2 hPa 53% 0.0mm
24/01:30pm NNE 9-17 kts 22.1°c 1020.7 hPa 50% 0.0mm
24/01:00pm NNE 10-17 kts 21.6°c 1021.2 hPa 49% 0.0mm
24/12:30pm NNW 7-11 kts 24.3°c 1021.8 hPa 43% 0.0mm
24/12:00pm NNW 6-11 kts 23.5°c 1022.5 hPa 43% 0.0mm
24/11:30am NNW 8-12 kts 23.3°c 1023.1 hPa 46% 0.0mm
24/11:00am NW 8-11 kts 21.8°c 1023.6 hPa 46% 0.0mm
24/10:30am NNW 7-10 kts 21.7°c 1024.1 hPa 53% 0.0mm
24/10:00am NNW 5-9 kts 20.8°c 1024.6 hPa 54% 0.0mm
24/09:30am WNW 5-8 kts 18.5°c 1024.9 hPa 57% 0.0mm
24/09:00am NW 5-8 kts 17.5°c 1025.0 hPa 58% 0.0mm
24/08:30am WNW 4-7 kts 15.5°c 1025.2 hPa 65% 0.0mm
24/08:00am NNW 5-6 kts 12.6°c 1025.1 hPa 74% 0.0mm
24/07:30am WNW 4-5 kts 10.3°c 1025.0 hPa 79% 0.0mm
24/07:00am WNW 5-7 kts 8.4°c 1024.8 hPa 85% 0.0mm
24/06:30am NW 5-6 kts 7.6°c 1024.8 hPa 87% 0.0mm
24/06:00am NW 6-9 kts 7.5°c 1024.6 hPa 86% 0.0mm
24/05:30am WNW 5-7 kts 8.6°c 1024.6 hPa 80% 0.0mm
24/05:00am W 6-7 kts 11.7°c 1024.2 hPa 70% 0.0mm
24/04:30am WSW 7-8 kts 12.1°c 1024.2 hPa 70% 0.0mm
24/04:00am WSW 7-8 kts 12.5°c 1024.0 hPa 70% 0.0mm
24/03:30am WSW 7-8 kts 12.5°c 1024.1 hPa 69% 0.0mm
24/03:00am WSW 7-8 kts 12.5°c 1024.2 hPa 68% 0.0mm
24/02:30am W 7-9 kts 12.3°c 1024.2 hPa 69% 0.0mm
24/02:00am W 7-8 kts 12.6°c 1024.6 hPa 67% 0.0mm
24/01:30am W 7-8 kts 12.9°c 1024.6 hPa 66% 0.0mm
24/01:00am W 7-8 kts 13.0°c 1024.7 hPa 65% 0.0mm
24/12:30am W 7-9 kts 13.1°c 1025.0 hPa 68% 0.0mm
24/12:00am W 7-8 kts 13.1°c 1025.1 hPa 69% 0.0mm